Cushing, OK

1:00 PM CDT on May 21, 2018 (GMT -0500)
Cushing Municipal

Weather History for KCUH - December, 2013

Change the Weather History Date:

Tuesday, December 31, 2013

  Actual Average Record
Temperature  
Mean Temperature 37 °F -  
Max Temperature 55 °F 42 °F 78 °F (1951)
Min Temperature 19 °F 22 °F -2 °F (1968)
Degree Days  
Heating Degree Days 28    
Moisture  
Dew Point 27 °F    
Average Humidity 70    
Maximum Humidity 100    
Minimum Humidity 38    
Precipitation  
Precipitation 0.00 in - - ()
Sea Level Pressure  
Sea Level Pressure 30.26 in    
Wind  
Wind Speed 5 mph (South)    
Max Wind Speed 21 mph    
Max Gust Speed 28 mph    
Visibility 10 miles    
Events      
Averages and records for this station are not official NWS values.
T = Trace of Precipitation, MM = Missing Value Source: NWS Daily Summary

Daily Weather History Graph

Daily Weather History Graph

Search for Another Location

Airport or City:

Astronomy

Dec. 31, 2013 Rise Set
Actual Time 7:37 AM CST 5:23 PM CST
Civil Twilight 7:08 AM CST 5:51 PM CST
Nautical Twilight 6:36 AM CST 6:23 PM CST
Astronomical Twilight 6:05 AM CST 6:54 PM CST
Moon 6:32 AM CST (12/31) 4:59 PM CST (12/31)
Length of Visible Light 10h 42m
Length of Day
9h 45m
Waning Crescent, 1% of the Moon is Illuminated
Dec 31
Waning Crescent
Jan 1
New
Jan 7
First Quarter
Jan 15
Full
Jan 23
Last Quarter

Hourly Weather History & Observations

Time (CST) Temp. Windchill Dew Point Humidity Pressure Visibility Wind Dir Wind Speed Gust Speed Precip Events Conditions
12:15 AM 30.2 °F - 23.0 °F 75% 30.36 in 10.0 mi Calm Calm - N/A   Clear
12:35 AM 30.2 °F - 23.0 °F 75% 30.35 in 10.0 mi Calm Calm - N/A   Clear
12:55 AM 30.2 °F 26.7 °F 23.0 °F 75% 30.35 in 10.0 mi West 3.5 mph - N/A   Clear
1:15 AM 32.0 °F 28.7 °F 24.8 °F 75% 30.35 in 10.0 mi West 3.5 mph - N/A   Clear
1:35 AM 30.2 °F - 23.0 °F 75% 30.34 in 10.0 mi Calm Calm - N/A   Clear
1:55 AM 30.2 °F - 23.0 °F 75% 30.33 in 10.0 mi Calm Calm - N/A   Clear
2:15 AM 26.6 °F - 21.2 °F 80% 30.34 in 10.0 mi Calm Calm - N/A   Clear
2:35 AM 23.0 °F - 19.4 °F 86% 30.35 in 10.0 mi Calm Calm - N/A   Clear
2:55 AM 23.0 °F - 19.4 °F 86% 30.35 in 10.0 mi Calm Calm - N/A   Clear
3:15 AM 23.0 °F - 21.2 °F 93% 30.35 in 10.0 mi Calm Calm - N/A   Clear
3:35 AM 23.0 °F - 21.2 °F 93% 30.35 in 10.0 mi Calm Calm - N/A   Clear
3:55 AM 23.0 °F - 21.2 °F 93% 30.35 in 10.0 mi Calm Calm - N/A   Clear
4:15 AM 21.2 °F - 19.4 °F 93% 30.35 in 10.0 mi Calm Calm - N/A   Clear
4:35 AM 21.2 °F - 19.4 °F 93% 30.34 in 10.0 mi Calm Calm - N/A   Clear
4:55 AM 19.4 °F - 19.4 °F 100% 30.34 in 10.0 mi Calm Calm - N/A   Clear
5:15 AM 19.4 °F - 19.4 °F 100% 30.34 in 10.0 mi Calm Calm - N/A   Clear
5:35 AM 19.4 °F - 19.4 °F 100% 30.34 in 10.0 mi Calm Calm - N/A   Clear
5:55 AM 19.4 °F - 19.4 °F 100% 30.33 in 10.0 mi Calm Calm - N/A   Clear
6:15 AM 19.4 °F - 19.4 °F 100% 30.34 in 10.0 mi Calm Calm - N/A   Clear
6:35 AM 19.4 °F - 19.4 °F 100% 30.34 in 10.0 mi Calm Calm - N/A   Clear
6:55 AM 21.2 °F - 21.2 °F 100% 30.34 in 10.0 mi Calm Calm - N/A   Clear
7:15 AM 23.0 °F - 21.2 °F 93% 30.33 in 10.0 mi Calm Calm - N/A   Clear
7:35 AM 21.2 °F - 19.4 °F 93% 30.33 in 10.0 mi Calm Calm - N/A   Clear
7:55 AM 19.4 °F - 17.6 °F 93% 30.34 in 10.0 mi Calm Calm - N/A   Clear
8:15 AM 21.2 °F - 19.4 °F 93% 30.34 in 10.0 mi Calm Calm - N/A   Clear
8:35 AM 24.8 °F 19.1 °F 23.0 °F 93% 30.34 in 10.0 mi SSE 4.6 mph - N/A   Clear
8:55 AM 28.4 °F - 26.6 °F 93% 30.35 in 10.0 mi Calm Calm - N/A   Clear
9:15 AM 32.0 °F - 28.4 °F 87% 30.35 in 10.0 mi Calm Calm - N/A   Clear
9:35 AM 33.8 °F 30.8 °F 30.2 °F 87% 30.35 in 10.0 mi SSE 3.5 mph - N/A   Clear
9:55 AM 37.4 °F 32.8 °F 30.2 °F 75% 30.35 in 10.0 mi South 5.8 mph - N/A   Clear
10:15 AM 42.8 °F 38.0 °F 32.0 °F 66% 30.35 in 10.0 mi South 8.1 mph - N/A   Clear
10:35 AM 42.8 °F 38.0 °F 30.2 °F 61% 30.35 in 10.0 mi South 8.1 mph - N/A   Clear
10:55 AM 46.4 °F 41.9 °F 32.0 °F 57% 30.34 in 10.0 mi South 9.2 mph - N/A   Clear
11:15 AM 46.4 °F 40.1 °F 30.2 °F 53% 30.33 in 10.0 mi SSW 15.0 mph 21.9 mph N/A   Clear
11:35 AM 46.4 °F 39.5 °F 30.2 °F 53% 30.32 in 10.0 mi South 17.3 mph 23.0 mph N/A   Clear
11:55 AM 50.0 °F - 30.2 °F 47% 30.31 in 10.0 mi South 16.1 mph 21.9 mph N/A   Clear
12:15 PM 50.0 °F - 30.2 °F 47% 30.29 in 10.0 mi South 15.0 mph - N/A   Clear
12:35 PM 51.8 °F - 30.2 °F 44% 30.27 in 10.0 mi South 13.8 mph 19.6 mph N/A   Clear
12:55 PM 51.8 °F - 30.2 °F 44% 30.26 in 10.0 mi South 18.4 mph 23.0 mph N/A   Clear
1:15 PM 53.6 °F - 30.2 °F 41% 30.24 in 10.0 mi SSW 19.6 mph 25.3 mph N/A   Clear
1:35 PM 53.6 °F - 30.2 °F 41% 30.23 in 10.0 mi SSW 18.4 mph 24.2 mph N/A   Clear
1:55 PM 53.6 °F - 30.2 °F 41% 30.22 in 10.0 mi South 16.1 mph 21.9 mph N/A   Clear
2:15 PM 55.4 °F - 30.2 °F 38% 30.20 in 10.0 mi SSW 20.7 mph 24.2 mph N/A   Clear
2:35 PM 55.4 °F - 32.0 °F 41% 30.19 in 10.0 mi South 18.4 mph 24.2 mph N/A   Clear
2:55 PM 55.4 °F - 32.0 °F 41% 30.18 in 10.0 mi South 13.8 mph 18.4 mph N/A   Clear
3:15 PM 55.4 °F - 30.2 °F 38% 30.18 in 10.0 mi SSW 18.4 mph 26.5 mph N/A   Clear
3:35 PM 55.4 °F - 30.2 °F 38% 30.17 in 10.0 mi South 19.6 mph 27.6 mph N/A   Clear
3:55 PM 53.6 °F - 32.0 °F 44% 30.17 in 10.0 mi SSW 18.4 mph 23.0 mph N/A   Clear
4:15 PM 53.6 °F - 32.0 °F 44% 30.16 in 10.0 mi SSW 16.1 mph 23.0 mph N/A   Clear
4:35 PM 51.8 °F - 32.0 °F 47% 30.16 in 10.0 mi South 17.3 mph 21.9 mph N/A   Clear
4:55 PM 50.0 °F - 30.2 °F 47% 30.15 in 10.0 mi South 12.7 mph 19.6 mph N/A   Clear
5:15 PM 50.0 °F - 30.2 °F 47% 30.15 in 10.0 mi South 12.7 mph 16.1 mph N/A   Clear
5:35 PM 46.4 °F 41.9 °F 30.2 °F 53% 30.15 in 10.0 mi South 9.2 mph - N/A   Clear
5:55 PM 44.6 °F 41.4 °F 30.2 °F 57% 30.15 in 10.0 mi South 5.8 mph - N/A   Clear
6:15 PM 42.8 °F 40.1 °F 28.4 °F 57% 30.16 in 10.0 mi South 4.6 mph - N/A   Clear
6:35 PM 44.6 °F 41.4 °F 30.2 °F 57% 30.15 in 10.0 mi SSE 5.8 mph - N/A   Clear
6:55 PM 44.6 °F 42.2 °F 30.2 °F 57% 30.15 in 10.0 mi South 4.6 mph - N/A   Clear
7:15 PM 44.6 °F 39.2 °F 30.2 °F 57% 30.15 in 10.0 mi South 10.4 mph - N/A   Clear
7:35 PM 42.8 °F 36.6 °F 30.2 °F 61% 30.16 in 10.0 mi South 11.5 mph - N/A   Clear
7:55 PM 42.8 °F 38.6 °F 30.2 °F 61% 30.15 in 10.0 mi South 6.9 mph - N/A   Clear
8:15 PM 42.8 °F 37.5 °F 30.2 °F 61% 30.15 in 10.0 mi South 9.2 mph 17.3 mph N/A   Clear
8:35 PM 39.2 °F 35.0 °F 30.2 °F 70% 30.15 in 10.0 mi South 5.8 mph - N/A   Clear
8:55 PM 39.2 °F 34.2 °F 30.2 °F 70% 30.15 in 10.0 mi South 6.9 mph - N/A   Clear
9:15 PM 39.2 °F 33.0 °F 30.2 °F 70% 30.16 in 10.0 mi South 9.2 mph - N/A   Clear
9:35 PM 39.2 °F 33.0 °F 30.2 °F 70% 30.16 in 10.0 mi South 9.2 mph - N/A   Clear
9:55 PM 37.4 °F 31.4 °F 30.2 °F 75% 30.15 in 10.0 mi South 8.1 mph - N/A   Clear
10:15 PM 37.4 °F 31.4 °F 30.2 °F 75% 30.15 in 10.0 mi South 8.1 mph - N/A   Clear
10:35 PM 37.4 °F 31.4 °F 30.2 °F 75% 30.14 in 10.0 mi South 8.1 mph - N/A   Clear
10:55 PM 37.4 °F 32.1 °F 30.2 °F 75% 30.14 in 10.0 mi South 6.9 mph - N/A   Clear
11:15 PM 37.4 °F 30.8 °F 30.2 °F 75% 30.13 in 10.0 mi South 9.2 mph - N/A   Clear
11:35 PM 37.4 °F 32.1 °F 30.2 °F 75% 30.12 in 10.0 mi South 6.9 mph - N/A   Clear
11:55 PM 37.4 °F 32.1 °F 30.2 °F 75% 30.12 in 10.0 mi South 6.9 mph - N/A   Clear